WZZ2MK LOWI-EDDK

Flight info

Callsign WZZ2MK
Flight time 1h 10m
Altitude 36000
Route KPT5J KPT L608 KOVAN T844 UMDAS/N0374F240 T844 ASKIK T840 GULKO GULKO13
Aircraft A320/M-SDE3FGHIRWY/LB1

Departure

Time 2026-04-22 20:55
Airport Innsbruck Airport (LOWI)

Arrival

Time 2026-04-22 22:05
Airport Cologne Bonn Airport (EDDK)
Time Latitude Longitude Altitude Speed Heading
2026-04-22 20:23 47.25831 11.35179 1900 ft 0 kts 173°
2026-04-22 20:44 47.25847 11.35180 1875 ft 2 kts 199°
2026-04-22 20:44 47.25861 11.35192 1911 ft 2 kts 239°
2026-04-22 20:44 47.25868 11.35214 1894 ft 2 kts 257°
2026-04-22 20:44 47.25870 11.35229 1895 ft 1 kts 260°
2026-04-22 20:45 47.25870 11.35231 1895 ft 0 kts 260°
2026-04-22 20:47 47.25869 11.35226 1901 ft 2 kts 261°
2026-04-22 20:47 47.25869 11.35222 1901 ft 0 kts 261°
2026-04-22 20:48 47.25872 11.35188 1901 ft 8 kts 281°
2026-04-22 20:48 47.25877 11.35071 1894 ft 14 kts 260°
2026-04-22 20:48 47.25861 11.34914 1895 ft 17 kts 262°
2026-04-22 20:48 47.25845 11.34736 1893 ft 19 kts 262°
2026-04-22 20:49 47.25824 11.34537 1901 ft 21 kts 261°
2026-04-22 20:49 47.25804 11.34357 1897 ft 19 kts 261°
2026-04-22 20:49 47.25795 11.34276 1902 ft 2 kts 258°
2026-04-22 20:49 47.25796 11.34286 1900 ft 2 kts 254°
2026-04-22 20:50 47.25799 11.34302 1898 ft 1 kts 256°
2026-04-22 20:50 47.25792 11.34256 1902 ft 11 kts 259°
2026-04-22 20:50 47.25777 11.34109 1898 ft 4 kts 258°
2026-04-22 20:50 47.25771 11.34049 1910 ft 0 kts 275°
2026-04-22 20:51 47.25774 11.34009 1911 ft 9 kts 276°
2026-04-22 20:51 47.25790 11.33918 1909 ft 9 kts 300°
2026-04-22 20:51 47.25838 11.33821 1901 ft 14 kts 306°
2026-04-22 20:52 47.25899 11.33701 1914 ft 15 kts 307°
2026-04-22 20:52 47.25926 11.33539 1914 ft 22 kts 263°
2026-04-22 20:52 47.25901 11.33257 1914 ft 32 kts 261°
2026-04-22 20:52 47.25842 11.33119 1914 ft 7 kts 213°
2026-04-22 20:53 47.25866 11.33104 1914 ft 6 kts 44°
2026-04-22 20:53 47.25894 11.33218 1914 ft 15 kts 81°
2026-04-22 20:53 47.25897 11.33253 1911 ft 0 kts 82°
2026-04-22 20:54 47.25904 11.33331 1914 ft 34 kts 81°
2026-04-22 20:54 47.25983 11.34055 1900 ft 106 kts 81°
2026-04-22 20:54 47.26134 11.35366 1934 ft 153 kts 81°
2026-04-22 20:54 47.26250 11.36972 2390 ft 161 kts 86°
2026-04-22 20:55 47.26254 11.38632 2972 ft 163 kts 91°
2026-04-22 20:55 47.26243 11.40292 3550 ft 159 kts 89°
2026-04-22 20:55 47.26379 11.41964 3818 ft 175 kts 78°
2026-04-22 20:55 47.26656 11.43830 4026 ft 198 kts 76°
2026-04-22 20:56 47.27219 11.45738 4412 ft 207 kts 61°
2026-04-22 20:56 47.27845 11.47641 4992 ft 207 kts 65°
2026-04-22 20:56 47.28459 11.49665 5377 ft 227 kts 66°
2026-04-22 20:56 47.29108 11.51874 6046 ft 240 kts 67°
2026-04-22 20:57 47.29613 11.54235 6810 ft 246 kts 83°
2026-04-22 20:57 47.29438 11.56833 7274 ft 266 kts 109°
2026-04-22 20:57 47.28855 11.58442 7747 ft 272 kts 126°
2026-04-22 20:57 47.28619 11.58868 7901 ft 274 kts 131°
2026-04-22 20:59 47.28128 11.59406 8481 ft 238 kts 158°
2026-04-22 20:59 47.26857 11.59607 11091 ft 155 kts 188°
2026-04-22 21:00 47.25765 11.58941 10944 ft 215 kts 224°
2026-04-22 21:00 47.24748 11.56708 10335 ft 290 kts 248°
2026-04-22 21:00 47.23966 11.53890 11083 ft 305 kts 248°
2026-04-22 21:00 47.23174 11.50855 11535 ft 330 kts 258°
2026-04-22 21:01 47.22971 11.47436 12210 ft 342 kts 277°
2026-04-22 21:01 47.23405 11.43978 13167 ft 347 kts 284°
2026-04-22 21:01 47.23713 11.40409 14173 ft 356 kts 277°
2026-04-22 21:01 47.23882 11.36753 15079 ft 360 kts 279°
2026-04-22 21:02 47.24317 11.33116 16003 ft 362 kts 289°
2026-04-22 21:02 47.25085 11.29579 16953 ft 365 kts 292°
2026-04-22 21:02 47.25926 11.26031 17913 ft 369 kts 293°
2026-04-22 21:02 47.26490 11.23717 18499 ft 372 kts 293°
2026-04-22 21:03 47.27581 11.20266 19313 ft 371 kts 307°
2026-04-22 21:03 47.29272 11.17417 20127 ft 370 kts 319°
2026-04-22 21:03 47.31116 11.14754 20963 ft 373 kts 319°
2026-04-22 21:03 47.32882 11.12207 21728 ft 377 kts 319°
2026-04-22 21:04 47.34768 11.09489 22559 ft 381 kts 319°
2026-04-22 21:04 47.36647 11.06774 23395 ft 386 kts 319°
2026-04-22 21:04 47.38571 11.03989 24121 ft 389 kts 319°
2026-04-22 21:04 47.40514 11.01170 24731 ft 394 kts 319°
2026-04-22 21:05 47.42473 10.98323 25326 ft 397 kts 319°
2026-04-22 21:05 47.44448 10.95449 25883 ft 400 kts 319°
2026-04-22 21:05 47.46440 10.92547 26391 ft 404 kts 319°
2026-04-22 21:05 47.48445 10.89624 26862 ft 407 kts 319°
2026-04-22 21:06 47.50467 10.86676 27271 ft 410 kts 319°
2026-04-22 21:06 47.52502 10.83701 27669 ft 412 kts 318°
2026-04-22 21:06 47.54547 10.80705 28071 ft 415 kts 318°
2026-04-22 21:06 47.56605 10.77689 28449 ft 418 kts 318°
2026-04-22 21:07 47.58677 10.74652 28802 ft 421 kts 318°
2026-04-22 21:07 47.60763 10.71590 29146 ft 423 kts 318°
2026-04-22 21:07 47.62860 10.68504 29492 ft 426 kts 318°
2026-04-22 21:07 47.64967 10.65402 29829 ft 429 kts 318°
2026-04-22 21:08 47.67089 10.62278 30171 ft 431 kts 318°
2026-04-22 21:08 47.69225 10.59134 30483 ft 434 kts 318°
2026-04-22 21:08 47.71370 10.55970 30769 ft 436 kts 318°
2026-04-22 21:08 47.73528 10.52777 31057 ft 438 kts 318°
2026-04-22 21:09 47.75574 10.49742 31451 ft 437 kts 318°
2026-04-22 21:09 47.77394 10.47042 31811 ft 436 kts 318°
2026-04-22 21:09 47.79536 10.43862 32245 ft 435 kts 318°
2026-04-22 21:09 47.81280 10.41274 32576 ft 434 kts 317°
2026-04-22 21:10 47.82396 10.39674 32809 ft 433 kts 319°
2026-04-22 21:10 47.84570 10.36572 33200 ft 433 kts 318°
2026-04-22 21:10 47.86701 10.33406 33607 ft 433 kts 317°
2026-04-22 21:10 47.88162 10.31187 33905 ft 432 kts 316°
2026-04-22 21:11 47.88934 10.30045 34059 ft 431 kts 319°
2026-04-22 21:11 47.89596 10.29114 34185 ft 431 kts 319°
2026-04-22 21:11 47.91096 10.26944 34443 ft 431 kts 317°
2026-04-22 21:11 47.93081 10.23953 34760 ft 430 kts 316°
2026-04-22 21:12 47.95158 10.20744 35078 ft 430 kts 316°
2026-04-22 21:12 47.97232 10.17531 35387 ft 430 kts 316°
2026-04-22 21:12 47.99314 10.14328 35697 ft 429 kts 317°
2026-04-22 21:12 48.01401 10.11146 35994 ft 429 kts 317°
2026-04-22 21:13 48.03495 10.07980 36234 ft 430 kts 317°
2026-04-22 21:13 48.05619 10.04791 36296 ft 435 kts 317°
2026-04-22 21:13 48.09958 9.98291 36303 ft 448 kts 317°
2026-04-22 21:14 48.14393 9.91599 36305 ft 457 kts 317°
2026-04-22 21:14 48.18519 9.85336 36301 ft 464 kts 317°
2026-04-22 21:15 48.21814 9.80311 36300 ft 468 kts 317°
2026-04-22 21:15 48.26404 9.73302 36456 ft 470 kts 317°
2026-04-22 21:16 48.28679 9.69824 36868 ft 463 kts 317°
2026-04-22 21:16 48.30917 9.66396 37275 ft 457 kts 317°
2026-04-22 21:16 48.31638 9.65291 37406 ft 455 kts 317°
2026-04-22 21:16 48.33051 9.63121 37680 ft 451 kts 317°
2026-04-22 21:17 48.35343 9.59968 38108 ft 444 kts 322°
2026-04-22 21:17 48.37614 9.57072 38524 ft 439 kts 322°
2026-04-22 21:17 48.39933 9.54121 38945 ft 434 kts 322°
2026-04-22 21:17 48.42263 9.51153 38779 ft 443 kts 322°
2026-04-22 21:18 48.44637 9.48122 38530 ft 452 kts 322°
2026-04-22 21:18 48.47048 9.45037 38384 ft 458 kts 322°
2026-04-22 21:18 48.51904 9.38790 38507 ft 459 kts 322°
2026-04-22 21:19 48.53591 9.36612 38556 ft 459 kts 322°
2026-04-22 21:22 48.58107 9.30785 38654 ft 453 kts 321°
2026-04-22 21:22 48.60483 9.27739 38781 ft 442 kts 325°
2026-04-22 21:22 48.63025 9.25218 38693 ft 435 kts 335°
2026-04-22 21:23 48.65759 9.23313 38500 ft 432 kts 338°
2026-04-22 21:23 48.68515 9.21504 38278 ft 432 kts 338°
2026-04-22 21:23 48.71272 9.19692 38059 ft 432 kts 338°
2026-04-22 21:23 48.74035 9.17872 37685 ft 435 kts 338°
2026-04-22 21:24 48.76823 9.16030 37289 ft 439 kts 338°
2026-04-22 21:24 48.79633 9.14169 36909 ft 443 kts 338°
2026-04-22 21:24 48.82498 9.12270 36540 ft 453 kts 338°
2026-04-22 21:24 48.85384 9.10348 36282 ft 452 kts 338°
2026-04-22 21:25 48.85717 9.10126 36268 ft 451 kts 338°
2026-04-22 21:26 48.85998 9.09935 36283 ft 440 kts 338°
2026-04-22 21:26 48.88269 9.07846 39272 ft 332 kts 326°
2026-04-22 21:27 48.89971 9.05824 41084 ft 301 kts 325°
2026-04-22 21:27 48.91742 9.03861 39755 ft 341 kts 331°
2026-04-22 21:27 48.94041 9.01959 37696 ft 405 kts 339°
2026-04-22 21:27 48.96786 9.00352 36097 ft 445 kts 349°
2026-04-22 21:28 48.99923 8.99743 35589 ft 459 kts 357°
2026-04-22 21:28 49.03109 8.99345 35586 ft 456 kts 357°
2026-04-22 21:28 49.06199 8.98947 35813 ft 437 kts 355°
2026-04-22 21:28 49.09133 8.97919 36055 ft 433 kts 342°
2026-04-22 21:29 49.11979 8.96405 36255 ft 435 kts 343°
2026-04-22 21:29 49.14868 8.94925 36308 ft 440 kts 344°
2026-04-22 21:29 49.20773 8.91981 36314 ft 452 kts 344°
2026-04-22 21:30 49.24953 8.89836 36186 ft 461 kts 343°
2026-04-22 21:30 49.31058 8.86737 36397 ft 462 kts 344°
2026-04-22 21:31 49.34075 8.85221 36502 ft 463 kts 344°
2026-04-22 21:31 49.37136 8.83675 36604 ft 464 kts 344°
2026-04-22 21:31 49.43290 8.80651 36777 ft 465 kts 346°
2026-04-22 21:32 49.49524 8.77945 36960 ft 465 kts 347°
2026-04-22 21:32 49.55676 8.75359 36808 ft 452 kts 347°
2026-04-22 21:33 49.58703 8.74063 36535 ft 453 kts 347°
2026-04-22 21:33 49.61744 8.72739 36145 ft 455 kts 346°
2026-04-22 21:33 49.64792 8.71395 35800 ft 457 kts 346°
2026-04-22 21:33 49.67729 8.70093 35507 ft 457 kts 346°
2026-04-22 21:34 49.70784 8.68736 35259 ft 456 kts 346°
2026-04-22 21:34 49.73790 8.67399 34999 ft 456 kts 347°
2026-04-22 21:34 49.76845 8.66040 34740 ft 456 kts 347°
2026-04-22 21:34 49.79903 8.64683 34530 ft 462 kts 347°
2026-04-22 21:35 49.81962 8.63772 34404 ft 467 kts 347°
2026-04-22 21:35 49.85685 8.62125 34129 ft 477 kts 347°
2026-04-22 21:35 49.88846 8.60721 34109 ft 464 kts 347°
2026-04-22 21:35 49.91898 8.59354 34158 ft 452 kts 347°
2026-04-22 21:36 49.95787 8.57570 34298 ft 441 kts 346°
2026-04-22 21:36 50.01620 8.54951 34493 ft 434 kts 347°
2026-04-22 21:37 50.04542 8.53660 34622 ft 439 kts 347°
2026-04-22 21:37 50.07488 8.52301 34754 ft 444 kts 345°
2026-04-22 21:37 50.10444 8.50798 34896 ft 449 kts 344°
2026-04-22 21:37 50.13412 8.49182 35031 ft 453 kts 343°
2026-04-22 21:38 50.16389 8.47507 35173 ft 456 kts 343°
2026-04-22 21:38 50.19381 8.45816 35315 ft 459 kts 343°
2026-04-22 21:38 50.22393 8.44134 35460 ft 461 kts 343°
2026-04-22 21:38 50.25422 8.42468 35606 ft 462 kts 343°
2026-04-22 21:39 50.28416 8.40793 35751 ft 464 kts 339°
2026-04-22 21:39 50.31262 8.38366 35897 ft 469 kts 331°
2026-04-22 21:39 50.34033 8.35644 36041 ft 470 kts 330°
2026-04-22 21:39 50.36791 8.32902 36169 ft 466 kts 330°
2026-04-22 21:40 50.39469 8.30205 35858 ft 449 kts 330°
2026-04-22 21:40 50.42061 8.27582 35229 ft 439 kts 330°
2026-04-22 21:40 50.44605 8.25013 34561 ft 431 kts 330°
2026-04-22 21:40 50.47116 8.22492 33759 ft 425 kts 330°
2026-04-22 21:41 50.49594 8.20004 32763 ft 422 kts 330°
2026-04-22 21:41 50.52102 8.17488 31322 ft 433 kts 330°
2026-04-22 21:41 50.53789 8.15796 30538 ft 435 kts 330°
2026-04-22 21:41 50.56337 8.13235 29392 ft 433 kts 330°
2026-04-22 21:42 50.58855 8.10702 28406 ft 427 kts 330°
2026-04-22 21:42 50.61336 8.08197 27491 ft 420 kts 330°
2026-04-22 21:42 50.62736 8.06779 26982 ft 415 kts 330°
2026-04-22 21:42 50.64362 8.05101 26540 ft 408 kts 330°
2026-04-22 21:43 50.66718 8.02684 25701 ft 402 kts 330°
2026-04-22 21:43 50.69061 8.00308 24890 ft 398 kts 330°
2026-04-22 21:43 50.71380 7.97967 24073 ft 394 kts 329°
2026-04-22 21:43 50.73435 7.95092 23001 ft 399 kts 308°
2026-04-22 21:44 50.74642 7.91144 21853 ft 405 kts 284°
2026-04-22 21:44 50.74808 7.86696 20682 ft 409 kts 265°
2026-04-22 21:44 50.74339 7.82322 19571 ft 411 kts 256°
2026-04-22 21:44 50.73272 7.78159 18451 ft 410 kts 238°
2026-04-22 21:45 50.71430 7.74761 17234 ft 408 kts 219°
2026-04-22 21:45 50.69018 7.72494 16068 ft 403 kts 199°
2026-04-22 21:45 50.66309 7.71595 14942 ft 395 kts 180°
2026-04-22 21:45 50.63620 7.72141 13816 ft 386 kts 160°
2026-04-22 21:46 50.61273 7.74023 12613 ft 375 kts 140°
2026-04-22 21:46 50.59538 7.76972 11479 ft 364 kts 119°
2026-04-22 21:46 50.58612 7.80589 10362 ft 353 kts 98°
2026-04-22 21:46 50.58590 7.84389 9178 ft 345 kts 79°
2026-04-22 21:47 50.59092 7.88048 8015 ft 340 kts 76°
2026-04-22 21:47 50.59686 7.91625 6880 ft 336 kts 69°
2026-04-22 21:47 50.60400 7.93774 6116 ft 333 kts 54°
2026-04-22 21:47 50.60488 7.93964 6042 ft 333 kts 52°
2026-04-22 21:51 50.61435 7.95950 4477 ft 326 kts 55°
2026-04-22 21:51 50.62663 7.98955 2482 ft 329 kts 56°
2026-04-22 21:52 50.65099 8.03563 3282 ft 258 kts 33°
2026-04-22 21:52 50.66775 8.04476 3347 ft 252 kts
2026-04-22 21:52 50.68470 8.04210 3351 ft 241 kts 343°
2026-04-22 21:52 50.69892 8.02934 3355 ft 236 kts 319°
2026-04-22 21:53 50.70879 8.00886 3352 ft 237 kts 295°
2026-04-22 21:53 50.71279 7.98376 3354 ft 238 kts 274°
2026-04-22 21:53 50.71365 7.95717 3363 ft 256 kts 265°
2026-04-22 21:53 50.70804 7.93004 3356 ft 266 kts 235°
2026-04-22 21:54 50.69485 7.91004 3356 ft 265 kts 211°
2026-04-22 21:54 50.67967 7.89363 3348 ft 260 kts 213°
2026-04-22 21:54 50.66541 7.87755 3354 ft 244 kts 213°
2026-04-22 21:54 50.65208 7.86236 3356 ft 229 kts 213°
2026-04-22 21:55 50.64066 7.84602 3354 ft 220 kts 233°
2026-04-22 21:55 50.63470 7.82387 3365 ft 226 kts 262°
2026-04-22 21:55 50.63598 7.79912 3365 ft 234 kts 290°
2026-04-22 21:55 50.64182 7.77485 3361 ft 239 kts 292°
2026-04-22 21:56 50.64782 7.75045 3360 ft 239 kts 292°
2026-04-22 21:56 50.65379 7.72604 3358 ft 239 kts 292°
2026-04-22 21:56 50.65974 7.70155 3360 ft 239 kts 292°
2026-04-22 21:56 50.66570 7.67708 3357 ft 239 kts 291°
2026-04-22 21:57 50.67163 7.65268 3359 ft 239 kts 291°
2026-04-22 21:57 50.67743 7.62873 3361 ft 239 kts 291°
2026-04-22 21:57 50.68331 7.60433 3359 ft 238 kts 291°
2026-04-22 21:57 50.68921 7.57984 3360 ft 238 kts 291°
2026-04-22 21:58 50.69509 7.55545 3366 ft 238 kts 291°
2026-04-22 21:58 50.70096 7.53107 3370 ft 238 kts 291°
2026-04-22 21:58 50.70684 7.50665 3367 ft 236 kts 291°
2026-04-22 21:58 50.70850 7.49971 3369 ft 238 kts 291°
2026-04-22 21:59 50.70878 7.49855 3369 ft 238 kts 291°
2026-04-22 21:59 50.71007 7.49313 3431 ft 232 kts 291°
2026-04-22 21:59 50.71587 7.46930 3380 ft 230 kts 291°
2026-04-22 21:59 50.72136 7.44634 3373 ft 218 kts 291°
2026-04-22 22:00 50.72652 7.42465 3374 ft 204 kts 291°
2026-04-22 22:00 50.73142 7.40401 3396 ft 199 kts 291°
2026-04-22 22:00 50.73625 7.38368 3365 ft 196 kts 291°
2026-04-22 22:00 50.74106 7.36351 3371 ft 196 kts 291°
2026-04-22 22:01 50.74586 7.34339 3373 ft 196 kts 291°
2026-04-22 22:01 50.75068 7.32333 3373 ft 195 kts 293°
2026-04-22 22:01 50.75796 7.30587 3297 ft 189 kts 316°
2026-04-22 22:01 50.76768 7.29170 2839 ft 193 kts 320°
2026-04-22 22:02 50.77737 7.27790 2477 ft 185 kts 320°
2026-04-22 22:02 50.78629 7.26508 2213 ft 164 kts 320°
2026-04-22 22:02 50.79440 7.25329 1912 ft 154 kts 319°
2026-04-22 22:02 50.80212 7.24202 1576 ft 149 kts 320°
2026-04-22 22:03 50.80972 7.23135 1357 ft 145 kts 320°
2026-04-22 22:03 50.81723 7.22083 1159 ft 144 kts 319°
2026-04-22 22:03 50.82445 7.21013 961 ft 142 kts 318°
2026-04-22 22:03 50.83160 7.19950 798 ft 140 kts 319°
2026-04-22 22:04 50.83884 7.18924 738 ft 140 kts 321°
2026-04-22 22:04 50.84614 7.17890 594 ft 142 kts 318°
2026-04-22 22:04 50.85332 7.16834 406 ft 140 kts 320°
2026-04-22 22:04 50.86031 7.15821 302 ft 126 kts 318°
2026-04-22 22:05 50.86572 7.15048 276 ft 81 kts 318°
2026-04-22 22:05 50.86826 7.14653 264 ft 36 kts 302°
2026-04-22 22:05 50.86868 7.14260 256 ft 36 kts 285°
2026-04-22 22:05 50.86951 7.13905 248 ft 30 kts 316°
2026-04-22 22:06 50.87113 7.13653 239 ft 35 kts 318°
2026-04-22 22:06 50.87304 7.13380 232 ft 39 kts 317°
2026-04-22 22:06 50.87510 7.13087 232 ft 41 kts 317°
2026-04-22 22:06 50.87666 7.12860 232 ft 28 kts 318°
2026-04-22 22:07 50.87796 7.12663 232 ft 20 kts 319°
2026-04-22 22:07 50.87928 7.12621 232 ft 18 kts 358°
2026-04-22 22:07 50.88029 7.12496 233 ft 21 kts 296°
2026-04-22 22:07 50.87999 7.12393 233 ft 11 kts 227°
2026-04-22 22:08 50.87968 7.12355 232 ft 0 kts 215°
2026-04-22 22:08 50.87967 7.12354 232 ft 0 kts 215°